Location: Aragüita
(10.0436°N, 67.8028°W)
Time: 12:00:16
(UTC+00:00)

Cosmos 1939 Rocket - Pass Details

Date: 14 April 2024
Orbit: 515 x 558 km, 97.4° (Epoch: 29 May)

Event Time Altitude Azimuth Distance (km) Brightness Sun altitude
Rises 09:22:46 0° 355° (N) 2,625 6.4 -14.9°
Reaches altitude 10° 09:25:00 10° 344° (NNW) 1,744 5.3 -14.4°
Maximum altitude 09:28:19 30° 282° (WNW) 953 3.5 -13.6°
Enters shadow 09:30:21 18° 234° (SW) 1,311 4.2 -13.1°
